Regional Weather Roundup
Issued by NWS

Home | Current Version | Previous Version | Graphics & Text | Print | Product List | Glossary On
Versions: 1 2 3 4 5 6 7 8 9 10 11 12 13 14 15 16 17 18 19 20 21 22 23 24 25 26 27 28 29 30 31 32 33 34 35 36 37 38 39 40 41 42 43 44 45 46 47 48 49 50
000
ASUS43 KDMX 050607
RWRIA

WEATHER ROUNDUP FOR IOWA
NATIONAL WEATHER SERVICE DES MOINES IA
100 AM CDT WED AUG 05 2015

NOTE: "FAIR" INDICATES FEW OR NO CLOUDS BELOW 12,000 FEET WITH NO
SIGNIFICANT WEATHER AND/OR OBSTRUCTIONS TO VISIBILITY.

* - THESE STATIONS ARE NOT NWS STATIONS...THUS NOT UNDER NWS
QUALITY CONTROL.  THEY ALSO DO NOT REPORT WEATHER SUCH
AS PRECIPITATION OR FOG.

IAZ001>003-012>014-020>022-031>034-043>046-050700-
   NORTHWEST IOWA

CITY           SKY/WX    TMP DP  RH WIND       PRES   REMARKS
CARROLL *      PTCLDY    66  64  94 SE6G13    30.01F
CHEROKEE *     MOCLDY    64  63  96 E5        30.03S
DENISON *      CLOUDY    68  64  88 NE7       30.00S
LE MARS *      MOCLDY    68  64  88 E5        30.03S
ORANGE CITY *  CLEAR     64  61  88 E6        30.04R
SHELDON *      CLEAR     61  59  94 E5        30.03R
SIOUX CITY     CLOUDY    67  62  84 SE10      30.00S
6HR MIN TEMP:  67; 6HR MAX TEMP:  76; 6HR PCP:  0.03;

SPENCER        MOCLDY    61  56  83 E3        30.05R
6HR MIN TEMP:  61; 6HR MAX TEMP:  76;

STORM LAKE *   MOCLDY    64  61  88 E5        30.05R
$$

IAZ055>058-069>071-079>083-090>094-050700-
   SOUTHWEST IOWA

CITY           SKY/WX    TMP DP  RH WIND       PRES   REMARKS
ATLANTIC *     CLEAR     68  64  88 NE7       29.99F
AUDUBON *      DRIZZLE   66  63  88 CALM      30.02S
CLARINDA *     CLEAR     70  70 100 CALM      29.99F
COUNCIL BLFS * CLEAR     66  66 100 E7        29.99R
CRESTON *      CLEAR     66  66 100 E7        30.02S
HARLAN  *      PTCLDY    68  68 100 E8        30.03S
LAMONI         MOCLDY    72  67  84 E5        30.00S
6HR MIN TEMP:  70; 6HR MAX TEMP:  74;

RED OAK *      CLEAR     68  68 100 SE6       29.98S
SHENANDOAH *   CLEAR     70  68  94 CALM      29.98R
$$

IAZ047>049-059>061-072>074-084-050700-
   CENTRAL IOWA

CITY           SKY/WX    TMP DP  RH WIND       PRES   REMARKS
AMES           CLOUDY    68  64  87 E5        30.03R
6HR MIN TEMP:  64; 6HR MAX TEMP:  75;

ANKENY *       CLOUDY    68  66  94 CALM      30.02S
CHARITON *     MOCLDY    68  64  88 E7        30.02S
DES MOINES     CLOUDY    71  62  73 SE9       30.01F
6HR MIN TEMP:  71; 6HR MAX TEMP:  77; 6HR PCP:  0.01;

GRINNELL*      CLOUDY    66  63  88 CALM      30.05R
KNOXVILLE *    CLOUDY    68  64  88 E5        30.01F
MARSHALLTOWN   MOCLDY    63  59  87 E7        30.03S
6HR MIN TEMP:  63; 6HR MAX TEMP:  78;

PELLA *        LGT RAIN  68  67  94 E3        30.04S
PERRY *        CLOUDY    68  66  94 E5        30.02S
$$

IAZ004>006-015-016-023>025-035-036-050700-
   NORTH CENTRAL IOWA

CITY           SKY/WX    TMP DP  RH WIND       PRES   REMARKS
ALGONA *       CLEAR     63  57  82 E5        30.06R
CLARION *      CLEAR     61  57  88 E8        30.05R
ESTHERVILLE    MOCLDY    56  54  93 SE3       30.05R
6HR MIN TEMP:  56; 6HR MAX TEMP:  74;

FORT DODGE *   MOCLDY    63  55  77 E7        30.05S
MASON CITY     MOCLDY    55  53  93 CALM      30.07R
6HR MIN TEMP:  54; 6HR MAX TEMP:  75;

FOREST CITY *  CLEAR     54  54 100 CALM      30.06R
IOWA FALLS *     N/A     62  56  83 CALM      30.06R
$$

IAZ007>011-017>019-026>030-037>042-050>054-066-050700-
   NORTHEAST IOWA

CITY           SKY/WX    TMP DP  RH WIND       PRES   REMARKS
CEDAR RAPIDS   PTCLDY    63  60  90 E5        30.03S
6HR MIN TEMP:  62; 6HR MAX TEMP:  76;

CHARLES CITY * CLEAR     59  59 100 CALM      30.06R
CLINTON *      CLEAR     61  57  88 CALM      30.06S
DECORAH *      CLEAR     59  55  88 CALM      30.05S
DUBUQUE        PTCLDY    59  53  80 CALM      30.05S
6HR MIN TEMP:  57; 6HR MAX TEMP:  74;

MONTICELLO *   CLEAR     57  55  94 CALM      30.04S
OELWEIN *      CLEAR     57  55  94 E3        30.06R
WATERLOO       MOCLDY    61  56  83 CALM      30.04R
6HR MIN TEMP:  59; 6HR MAX TEMP:  78;

$$

IAZ064-065-067-068-078-050700-
   EAST CENTRAL IOWA

CITY           SKY/WX    TMP DP  RH WIND       PRES   REMARKS
DAVENPORT      CLEAR     61  60  97 CALM      30.04S
6HR MIN TEMP:  61; 6HR MAX TEMP:  78;

IOWA CITY      PTCLDY    67  64  90 S5        30.05R
6HR MIN TEMP:  66; 6HR MAX TEMP:  77;

MT. PLEASANT * MOCLDY    67  63  85 CALM      30.03F
MUSCATINE *    CLEAR     64  63  94 CALM      30.04S
QUAD CITIES    PTCLDY    64  61  90 CALM      30.03S
6HR MIN TEMP:  64; 6HR MAX TEMP:  77;

$$

IAZ062-063-075>077-085>089-095>099-050700-
   SOUTHEAST IOWA

CITY           SKY/WX    TMP DP  RH WIND       PRES   REMARKS
BURLINGTON     PTCLDY    67  65  93 CALM      30.03F
6HR MIN TEMP:  66; 6HR MAX TEMP:  74;

FAIRFIELD *    CLOUDY    66  64  94 CALM      30.03S
FORT MADISON * CLEAR     64  63  94 CALM      30.04F
KEOKUK *       CLEAR     66  64  94 CALM      30.03S
OSKALOOSA *    MOCLDY    67  63  88 CALM      30.03S
CENTERVILLE *  CLEAR     66  66 100 E6        30.03F
OTTUMWA        CLOUDY    67  64  90 SE6       30.01S
6HR MIN TEMP:  65; 6HR MAX TEMP:  73;

WASHINGTON *   CLEAR     63  61  94 CALM      30.05S
$$

ABBREVIATIONS USED IN REMARKS
   TC - TEMPERATURES IN CELSIUS
  WCI - WIND CHILL INDEX
   HX - HEAT INDEX
  VSB - VISIBILITY
$$




USA.gov is the U.S. government's official web portal to all federal, state and local government web resources and services.